Location: Unspecified
(0.0000°N, 0.0000°E)
Time: 07:52:10
(UTC+00:00)

Tiangong 2 - Pass Details

Date: 19 November 2017
Orbit: 386 x 392 km, 42.8° (Epoch: 20 November)

Event Time Altitude Azimuth Distance (km) Brightness Sun altitude
Rises 18:26:51 0° 302° (WNW) 2,256 5.5 -9.7°
Reaches altitude 10° 18:29:00 10° 293° (WNW) 1,404 4.6 -10.2°
Maximum altitude 18:31:56 35° 225° (SW) 641 2.8 -10.9°
Drops below altitude 10° 18:34:53 10° 157° (SSE) 1,406 3.9 -11.6°
Sets 18:37:03 0° 148° (SSE) 2,260 4.8 -12.1°
